AO-07 1 07530U 74089B 15014.86778052 -.00000041 00000-0 12899-4 0 1684 2 07530 101.5011 354.9383 0011658 241.5026 232.3028 12.53611227838045 FO-29 1 24278U 96046B 15015.53627471 -.00000014 00000-0 18500-4 0 5580 2 24278 098.5224 005.1191 0351477 106.6794 005.7172 13.53041375909385 SO-33 1 25509U 98061B 15015.49086654 .00000479 00000-0 80759-4 0 9239 2 25509 031.4347 037.2298 0348778 174.7940 312.9658 14.29799400847553 RS-22 1 27939U 03042A 15015.72500324 .00001369 00000-0 25937-3 0 2209 2 27939 097.8223 184.5846 0013465 149.0796 211.1205 14.65717758603859 HO-68 1 36122U 09072B 15015.69954961 -.00000060 00000-0 -43517-4 0 3023 2 36122 100.2187 065.8011 0007917 110.4623 249.7337 13.16322837244390 AO-73 1 39444U 13066AE 15014.81259705 .00002827 00000-0 37448-3 0 3574 2 39444 097.7517 083.1195 0059390 275.3252 084.1186 14.79455460 60730 EO-79 1 40025U 14033R 15015.78150215 .00003470 00000-0 39928-3 0 6167 2 40025 097.9668 275.7777 0012749 329.2999 030.7450 14.86371582 31150 UO-11 1 14781U 84021B 15015.40318841 .00000935 00000-0 12408-3 0 7169 2 14781 097.8236 076.1024 0008449 200.3603 159.7275 14.82093265659395 AO-16 1 20439U 90005D 15014.89075541 .00000172 00000-0 79402-4 0 2182 2 20439 098.5288 313.4504 0009802 250.8869 149.8820 14.32473557304793 LO-19 1 20442U 90005G 15015.46795070 .00000166 00000-0 77014-4 0 1512 2 20442 098.4999 314.0348 0010932 236.4725 123.5416 14.32670497305079 AO-27 1 22825U 93061C 15014.81001399 .00000140 00000-0 71679-4 0 8662 2 22825 098.6904 325.0461 0009009 044.6180 347.8128 14.29820149111027 IO-26 1 22826U 93061D 15015.45368659 .00000150 00000-0 75016-4 0 6230 2 22826 098.6849 325.8760 0009355 034.9820 325.1975 14.30131037111250 GO-32 1 25397U 98043D 15014.94462449 .00000078 00000-0 53024-4 0 5442 2 25397 098.5005 330.3609 0002231 076.9286 329.4816 14.23507927857996 NO-44 1 26931U 01043C 15014.87125140 .00000116 00000-0 76695-4 0 7980 2 26931 067.0501 212.5476 0006949 268.3558 091.6747 14.30239542693874 SO-50 1 27607U 02058C 15015.30697527 .00001700 00000-0 26635-3 0 6347 2 27607 064.5582 305.4729 0071506 319.0219 040.5522 14.74370066648743 CO-55 1 27844U 03031E 15014.70571984 .00000364 00000-0 18561-3 0 1162 2 27844 098.6968 025.4259 0009997 030.6624 029.7503 14.21685524598630 CO-57 1 27848U 03031J 15015.48259329 .00000250 00000-0 13473-3 0 539 2 27848 098.7065 026.0181 0009978 035.4408 128.0135 14.21349751598651 AO-51 1 28375U 04025K 15015.47658796 .00000303 00000-0 10227-3 0 385 2 28375 098.2778 320.4500 0083980 071.3336 289.6948 14.41555072554490 CP3 1 31129U 07012N 15014.90815134 .00001473 00000-0 32803-3 0 9475 2 31129 097.9615 347.5406 0098600 071.8173 341.5902 14.55351044410825 CO-65 1 32785U 08021C 15014.84648884 .00002192 00000-0 25499-3 0 1669 2 32785 097.6717 063.9444 0013105 206.8967 206.1457 14.86237965363459 PRISM 1 33493U 09002B 15015.84610068 .00006351 00000-0 63493-3 0 6730 2 33493 098.2520 205.9407 0017467 107.3202 252.9912 14.91723869323858 SOHLA-1 1 33496U 09002E 15014.95753844 .00000575 00000-0 10169-3 0 5625 2 33496 098.1915 141.7657 0005132 291.8231 182.5113 14.71145129320649 TISAT-1 1 36799U 10035E 15015.22442934 .00005107 00000-0 57096-3 0 8470 2 36799 098.0157 113.9991 0012915 354.0036 062.1848 14.87333446244213 STUDSAT 1 36801U 10035G 15015.37352381 .00024078 00000-0 17104-2 0 9841 2 36801 098.0528 127.3628 0005882 299.4946 101.3503 15.04687450244932 ALMASAT-1 1 38078U 12006B 15015.52654308 .00038871 00000-0 74265-3 0 2717 2 38078 069.4584 261.7558 0526320 107.2751 258.6651 14.66030327152563 XATCOBEO 1 38082U 12006F 14243.34478676 .13583328 43697-5 37939-3 0 5637 2 38082 069.3815 097.0364 0033293 225.1799 135.4582 16.41261006136239 CUBEBUG-1 1 39153U 13018D 15015.45164124 .00002046 00000-0 28593-3 0 7926 2 39153 098.0281 100.2624 0017958 030.7421 329.4837 14.78625859 92904 ESTCUBE-1 1 39161U 13021C 15015.69140238 .00001869 00000-0 31462-3 0 8466 2 39161 098.0831 099.9409 0010997 080.6236 279.6203 14.70705284 90828 DUCHIFAT-1 1 40021U 14033M 15015.67826237 .00004620 00000-0 52257-3 0 6208 2 40021 097.9657 275.8011 0013640 330.2251 029.8193 14.86893347 31139 NANOSATCBR1 1 40024U 14033Q 15015.56537464 .00004254 00000-0 48500-3 0 6074 2 40024 097.9648 275.5942 0012440 330.5309 029.5209 14.86623692 31113 DTUSAT-2 1 40030U 14033W 15015.69992882 .00003412 00000-0 39645-3 0 6013 2 40030 097.9648 275.5490 0011957 323.6214 036.4193 14.85978711 31133 ANTELSAT 1 40034U 14033AA 15015.68551969 .00002751 00000-0 43326-3 0 6187 2 40034 097.9605 270.9833 0059596 248.0568 111.4294 14.72113933 30850 MET-2/21 1 22782U 93055A 15014.93164126 .00000038 00000-0 20687-4 0 2751 2 22782 082.5494 005.2823 0022869 034.5009 025.2932 13.83757226 79400 OKEAN-4 1 23317U 94066A 15015.55502448 .00001250 00000-0 13898-3 0 7602 2 23317 082.5360 228.7363 0021650 114.6639 304.3729 14.86220701 94649 NOAA-14 1 23455U 94089A 15015.62766016 -.00000061 00000-0 00000 0 0 533 2 23455 098.7640 100.1568 0010086 148.7861 211.4386 14.14015691 33975 NOAA-15 1 25338U 98030A 15015.85298315 .00000321 00000-0 13570-3 0 4938 2 25338 098.7656 014.4523 0009833 250.5925 109.4681 14.25549527867345 RESURS 1 25394U 98043A 15015.51257897 .00000038 00000-0 34640-4 0 8545 2 25394 098.4452 336.2763 0001658 045.1199 063.3164 14.24435356858546 FENGYUN1 1 25730U 99025A 15015.53729947 .00002509 00000-0 13699-2 0 3439 2 25730 098.9308 340.6128 0018751 230.0954 255.0191 14.12888010807499 OKEAN-0 1 25860U 99039A 15015.52030094 .00000866 00000-0 13411-3 0 4679 2 25860 098.0742 343.5358 0001966 101.2741 031.7002 14.75743601833467 NOAA-16 1 26536U 00055A 15015.50684226 .00000150 00000-0 10436-3 0 9901 2 26536 098.9629 081.4924 0009573 306.1835 053.8451 14.13069242738090 NOAA-17 1 27453U 02032A 15015.48616749 .00000071 00000-0 47834-4 0 8846 2 27453 098.3276 009.1548 0010592 270.0370 089.9597 14.24844007652915 NOAA-18 1 28654U 05018A 15015.53894615 .00000181 00000-0 12390-3 0 4052 2 28654 099.1720 004.5633 0014655 032.2854 073.8716 14.12134717497532 NOAA-19 1 33591U 09005A 15015.54556132 .00000231 00000-0 15091-3 0 5360 2 33591 098.9725 325.2192 0013230 238.1153 244.1365 14.11855315305950 HUBBLE 1 20580U 90037B 15015.54251277 .00003266 00000-0 20333-3 0 2005 2 20580 028.4713 080.1295 0003253 043.9482 093.8701 15.06634062156766 ISS 1 25544U 98067A 15015.74068791 .00017536 00000-0 27934-3 0 7329 2 25544 051.6470 125.0563 0005905 257.6610 257.1002 15.53331906924315 CO-58 1 28895U 05043F 15015.01929286 .00000967 00000-0 19937-3 0 9694 2 28895 097.8215 210.8043 0018218 064.2313 296.0767 14.62424101491201 FALCON 1 30776U 07006E 15015.09332788 .00013599 00000-0 60541-3 0 535 2 30776 035.4272 238.2904 0003307 346.5244 148.6131 15.20698051432951 MAST 1 31126U 07012K 15014.87087999 .00001091 00000-0 24532-3 0 2512 2 31126 097.9414 350.0740 0092402 054.7425 335.8581 14.55734678411180 CAPE1 1 31130U 07012P 15014.85909228 .00001352 00000-0 30364-3 0 2579 2 31130 097.9630 347.0081 0099283 073.6077 287.6008 14.55057998410580 COMPASS 1 32787U 08021E 15015.44734593 .00004261 00000-0 45147-3 0 1538 2 32787 097.6743 067.7537 0013209 194.4237 165.6605 14.89569129363763 AAUSAT2 1 32788U 08021F 15015.13878715 .00005639 00000-0 58253-3 0 1408 2 32788 097.6754 068.7222 0012713 192.2948 167.7962 14.90466748363799 DO-64 1 32789U 08021G 15015.07849215 .00009844 00000-0 85667-3 0 1934 2 32789 097.6965 077.4503 0011455 172.2000 254.5233 14.97089674364155 CO-66 1 32791U 08021J 15015.41249647 .00004066 00000-0 44936-3 0 1360 2 32791 097.6742 065.9972 0013754 198.8503 161.2206 14.87878946363597 RS-30 1 32953U 08025A 15015.71487833 .00000010 00000-0 -13620-7 0 6460 2 32953 082.5024 069.0674 0019420 055.2013 305.0888 12.43055053301665 METEOR-M 1 35865U 09049A 15015.66129817 .00000133 00000-0 79187-4 0 2548 2 35865 098.5209 061.3128 0002130 186.2655 173.8503 14.21980138276539 RS-38 1 35869U 09049E 15015.72390078 .00000118 00000-0 72082-4 0 1626 2 35869 098.5149 061.0783 0004319 186.4959 173.6160 14.22264277276582 JUGNU 1 37839U 11058B 15015.41967598 .00000452 00000-0 99211-4 0 7733 2 37839 019.9631 048.5738 0018869 162.0891 321.1305 14.12407230168593 SRMSAT 1 37841U 11058D 15015.42892166 .00000426 00000-0 89963-4 0 7784 2 37841 019.9732 072.1130 0012069 093.8139 024.8135 14.10431014168356 RAX-2 1 37853U 11061D 15014.88888304 .00015261 00000-0 96857-3 0 155 2 37853 101.7044 150.9982 0204458 162.9488 354.3950 14.93378110174200 AUBIESAT 1 37854U 11061E 15014.92527010 .00017079 00000-0 10411-2 0 144 2 37854 101.7088 153.7503 0200743 158.9434 323.5419 14.95195839174292 HRBE 1 37855U 11061F 15014.86951464 .00016205 00000-0 10051-2 0 355 2 37855 101.7102 152.6527 0203747 160.9098 199.9887 14.94225532174231 RS-39 1 38051U 11062C 14288.65876392 .70201582 12497-4 27925-2 0 413 2 38051 051.5964 324.1908 0006422 269.6897 186.8903 16.43533377153081 E-STAR 1 38079U 12006C 15015.82880555 .07422306 48700-5 10119-2 0 2130 2 38079 069.4080 126.0505 0028552 030.9863 329.3018 16.33522890156148 GOLIAT 1 38085U 12006J 15015.80341648 .00371813 45598-4 13886-2 0 7252 2 38085 069.4276 142.9485 0158213 041.6402 113.4533 15.70832907155711 HORYU-2 1 38340U 12025D 15014.90064596 .00002421 00000-0 37967-3 0 702 2 38340 098.2932 341.1401 0011171 218.8642 141.1763 14.73587362142959 RS-40 1 38735U 12041C 15015.77218009 .00000040 00000-0 21992-3 0 9495 2 38735 082.4762 155.0069 0017458 151.7543 208.4485 12.42566492111986 PROITERES 1 38756U 12047B 15015.83719598 .00001324 00000-0 20218-3 0 5931 2 38756 098.2214 112.6155 0013398 066.9196 293.3412 14.75481629126537 BEESAT-3 1 39134U 13015E 15015.83672701 .00011947 00000-0 73659-3 0 8260 2 39134 064.8727 183.9034 0035291 272.7074 087.0516 15.09183627 95680 BEESAT-2 1 39136U 13015G 15014.88807805 .00009895 00000-0 64170-3 0 7997 2 39136 064.8731 188.2507 0035860 273.0520 086.6498 15.08011096 95528 LO-75 1 39382U 13064C 14295.69194059 .07301741 00000-0 36367-2 0 4875 2 39382 040.4713 030.2705 0002289 341.7175 018.4586 16.19795749470823 ZACUBE-1 1 39417U 13066B 15014.66487691 .00002257 00000-0 30307-3 0 5143 2 39417 097.7515 082.8500 0059801 276.2875 083.1528 14.79062189 61936 TRITON-1 1 39427U 13066M 15014.81796310 .00001462 00000-0 24957-3 0 3668 2 39427 097.7375 074.4652 0115440 296.6527 062.2893 14.66139677 61383 DELFIN3XT 1 39428U 13066N 15014.60569156 .00003231 00000-0 55232-3 0 3691 2 39428 097.7380 072.8911 0124830 301.2200 057.6820 14.64525603 61254 GOMX-1 1 39430U 13066Q 15015.70118785 .00001832 00000-0 35154-3 0 1665 2 39430 097.7304 069.6937 0154160 310.2641 048.5157 14.57560062 61165 MO-76 1 39436U 13066W 15015.44874611 .00027040 00000-0 22414-2 0 4687 2 39436 097.7585 091.5546 0022583 263.7294 096.1356 14.98592169 62553 LO-74 1 39440U 13066AA 15014.81104803 .00002236 00000-0 33075-3 0 3619 2 39440 097.7468 079.6105 0081616 283.2716 075.9400 14.73927163 61737 PUCPSAT-1 1 39442U 13066AC 15015.45000064 .00004224 00000-0 46678-3 0 3630 2 39442 097.7581 088.9465 0032530 266.7051 093.0444 14.87561580 61153 SHINAISAT 1 39572U 14009A 14328.13084988 .28848087 76253-5 66603-3 0 4474 2 39572 064.9728 197.0096 0013534 259.7861 100.1802 16.45181032 42403 TEIKYOSAT 1 39576U 14009E 14297.85867254 .09345816 76764-5 25176-3 0 4374 2 39576 064.9818 300.5833 0008491 317.3597 044.3862 16.45008906 37698 CO-77 1 39577U 14009F 14244.78324653 .10543803 76292-5 32273-3 0 3795 2 39577 064.9920 123.7668 0014904 269.7208 091.1897 16.43552757 29380 SPROUT 1 39770U 14029E 15015.75554182 .00001693 00000-0 21312-3 0 2535 2 39770 097.8710 114.7417 0009635 346.9041 013.1935 14.83322155 35032 POPSAT-HIP1 1 40028U 14033U 15015.80448000 .00003276 00000-0 37866-3 0 6416 2 40028 097.9688 275.8424 0014242 326.5288 033.5033 14.86208911 31148 EO-80 1 40032U 14033Y 15015.77095986 .00003477 00000-0 40426-3 0 6215 2 40032 097.9631 275.6278 0011937 321.8839 038.1527 14.85945811 31149 VELOX-1 1 40057U 14034E 15015.88644518 .00003022 00000-0 45628-3 0 6334 2 40057 098.2318 091.4825 0011737 010.8642 349.2798 14.75039936 29424 DAURIA DX 1 1 40071U 14037C 15015.89595341 .00001423 00000-0 19550-3 0 6038 2 40071 098.3773 080.9443 0009138 015.6526 344.4946 14.80013253 28264 UKUBE-1 1 40074U 14037F 15015.82674883 .00002922 00000-0 38088-3 0 6046 2 40074 098.3784 081.2240 0005376 027.5851 332.5634 14.81398587 28271 CHASQUI-1 1 40117U 98067ET 15014.73322295 .07508583 12315-4 10026-2 0 4726 2 40117 051.6189 112.4445 0004239 337.2783 022.7551 16.34635278 23368 HODOYOSHI-1 1 40299U 14070B 15015.88100491 .00005189 00000-0 25923-3 0 2180 2 40299 097.4683 099.3795 0012474 308.7039 185.9670 15.17839207 10698 CHUBUSAT-1 1 40300U 14070C 15015.91008193 .00006480 00000-0 34047-3 0 2196 2 40300 097.4659 099.1663 0022184 305.9781 176.4785 15.15823878 10695 QSAT-EOS 1 40301U 14070D 15015.88256174 .00011105 00000-0 61008-3 0 2341 2 40301 097.4632 098.8603 0033440 304.5061 146.8798 15.13794148 10678 TSUBAME 1 40302U 14070E 15015.87228259 .00006780 00000-0 39961-3 0 2272 2 40302 097.4603 098.5652 0043764 305.3667 191.8506 15.11091480 10640 /EX